This is the latest recevied weather packets stored in our database for station/object vk4zu-13. If no packets are shown the sender has not sent any weather packets the latest 10 day(s).
| Time | Temp. | Humidity | Pressure | Rain* | Wind** | Luminosity | Snow |
|---|---|---|---|---|---|---|---|
| 1777672809 | 21.11° C | 91% | 1022.5 hPa | 3.05 mm | - | 100 W/m² | - |
| 1777672750 | 21.11° C | 91% | 1022.5 hPa | 2.79 mm | - | 93 W/m² | - |
| 1777672688 | 21.11° C | 91% | 1022.4 hPa | 3.05 mm | - | 93 W/m² | - |
| 1777672624 | 21.11° C | 91% | 1022.5 hPa | 3.05 mm | - | 192 W/m² | - |
| 1777672566 | 21.11° C | 92% | 1022.4 hPa | 3.3 mm | - | 192 W/m² | - |
| 1777672493 | 21.11° C | 92% | 1022.4 hPa | 3.3 mm | - | 207 W/m² | - |
| 1777672423 | 20.56° C | 91% | 1022.5 hPa | 3.05 mm | - | 95 W/m² | - |
| 1777672361 | 20.56° C | 91% | 1022.4 hPa | 3.3 mm | - | 95 W/m² | - |
| 1777672303 | 20.56° C | 92% | 1022.5 hPa | 3.3 mm | - | 225 W/m² | - |
| 1777672232 | 20.56° C | 91% | 1022.5 hPa | 3.3 mm | - | 186 W/m² | - |
| 1777672162 | 20.56° C | 91% | 1022.4 hPa | 3.3 mm | - | 130 W/m² | - |
| 1777672092 | 20.56° C | 91% | 1022.4 hPa | 3.3 mm | - | 76 W/m² | - |
| 1777672022 | 20.56° C | 91% | 1022.5 hPa | 3.3 mm | - | 83 W/m² | - |
| 1777671954 | 20.56° C | 91% | 1022.5 hPa | 3.3 mm | - | 74 W/m² | - |
| 1777671881 | 20.56° C | 91% | 1022.5 hPa | 3.56 mm | - | 69 W/m² | - |
| 1777671812 | 20.56° C | 91% | 1022.4 hPa | 3.56 mm | - | 67 W/m² | - |
| 1777671745 | 20.56° C | 91% | 1022.3 hPa | 3.56 mm | - | 81 W/m² | - |
| 1777671672 | 20.56° C | 91% | 1022.4 hPa | 3.81 mm | - | 69 W/m² | - |
| 1777671601 | 20.56° C | 91% | 1022.3 hPa | 3.81 mm | - | 98 W/m² | - |
| 1777671532 | 20.56° C | 92% | 1022.5 hPa | 3.81 mm | - | 42 W/m² | - |
| 1777671459 | 20.56° C | 92% | 1022.5 hPa | 3.81 mm | - | 44 W/m² | - |
| 1777671396 | 20.56° C | 92% | 1022.4 hPa | 4.06 mm | - | 47 W/m² | - |
| 1777671337 | 20.56° C | 92% | 1022.5 hPa | 4.06 mm | - | 49 W/m² | - |
| 1777671267 | 20.56° C | 92% | 1022.4 hPa | 3.81 mm | - | 46 W/m² | - |
| 1777671203 | 20.56° C | 92% | 1022.4 hPa | 4.06 mm | - | 47 W/m² | - |
* Rain latest hour (hover to see other rain measurements)
** Current wind speed in m/s (hover to see current wind gust speed)